Flag Weather past 2 weeks in Onex, Geneva, Switzerland

Now
41 °F

Fog.


Feels Like: 41 °F
Forecast: 40 / 65 °F
Wind: 1 mph from North

Location: Geneva Cointrin Airport

Current Time: Oct 31, 2014 at 5:59:38 AM

Latest Report: Oct 31, 2014 at 5:20 AM


Visibility: 4 mi

Pressure: 30.30 "Hg

Humidity: 100%

Dew point: 41 °F

Location of OnexLocation

Historic Weather in Onex — Graph

°F

Onex temperature yesterday

Maximum temperature yesterday: 61 °F (at 1:20 PM)
Minimum temperature yesterday: 39 °F (at 3:50 AM)
Average temperature yesterday: 49 °F

Past Weeks' High & Low Weather Summary

 TemperatureHumidityPressure
High75 °F (Oct 19, 3:20 PM)100% (Oct 16, 10:50 PM)30.36 "Hg (Oct 16, 10:50 PM)
Low36 °F (Oct 23, 6:20 AM)47% (Oct 19, 3:50 PM)29.86 "Hg (Oct 16, 5:20 AM)
Average54 °F83%30.16 "Hg
* Reported Oct 16 5:20 AM — Oct 31 4:50 AM, Onex, Weather by CustomWeather, © 2014

Note: Actual official high and low records may vary slightly from our data, if they occured in-between our weather recording intervals... More about our weather records

Advertising

Onex weather history for previous 24 hours

 ConditionsComfort  
Time TempWeatherWind HumidityBarometerVisibility
4:50 AM
Oct 31
41 °FClear.1 mph100%30.30 "Hg4 mi
4:20 AM41 °FClear.2 mph100%30.30 "Hg4 mi
3:50 AM41 °FClear.1 mph100%30.30 "Hg4 mi
3:20 AM41 °FClear.1 mph100%30.30 "Hg5 mi
2:50 AM41 °FClear.1 mph100%30.30 "Hg5 mi
1:50 AM43 °FClear.1 mph100%30.30 "Hg6 mi
1:20 AM43 °FClear.1 mph100%30.30 "Hg6 mi
12:50 AM43 °FClear.2 mph100%30.30 "Hg10 mi
12:20 AM43 °FClear.2 mph100%30.30 "Hg10 mi
11:50 PM
Oct 30
45 °FClear.2 mph93%30.30 "Hg10 mi
11:20 PM45 °FClear.2 mph100%30.30 "Hg10 mi
10:50 PM45 °FClear.2 mph100%30.30 "Hg10 mi
10:20 PM45 °FClear.1 mph100%30.30 "Hg10 mi
9:50 PM46 °FClear.1 mph93%30.30 "Hg10 mi
9:20 PM46 °FClear.1 mph100%30.30 "Hg10 mi
8:50 PM48 °FClear.1 mph94%30.27 "Hg10 mi
8:20 PM48 °FClear.1 mph100%30.27 "Hg10 mi
7:50 PM48 °FClear.1 mph100%30.27 "Hg10 mi
7:20 PM50 °FClear.2 mph94%30.27 "Hg10 mi
6:50 PM50 °FClear.1 mph94%30.27 "Hg10 mi
6:20 PM52 °FClear.1 mph88%30.27 "Hg10 mi
5:50 PM54 °FPassing clouds.2 mph88%30.24 "HgN/A
5:20 PM57 °FSunny.3 mph77%30.24 "Hg10 mi
4:50 PM61 °FSunny.2 mph68%30.21 "Hg10 mi
4:20 PM61 °FSunny.5 mph63%30.21 "Hg10 mi
3:50 PM61 °FSunny.3 mph63%30.21 "Hg10 mi
3:20 PM61 °FPassing clouds.3 mph63%30.21 "HgN/A
2:50 PM61 °FPassing clouds.6 mph63%30.21 "HgN/A
2:20 PM61 °FPassing clouds.5 mph59%30.24 "HgN/A
1:50 PM61 °FPassing clouds.6 mph55%30.24 "HgN/A
1:20 PM61 °FPassing clouds.3 mph59%30.24 "HgN/A
12:50 PM59 °FPassing clouds.3 mph63%30.24 "HgN/A
12:20 PM59 °FPassing clouds.5 mph63%30.27 "HgN/A
11:50 AM57 °FPassing clouds.3 mph67%30.27 "HgN/A
11:20 AM55 °FPassing clouds.2 mph72%30.27 "HgN/A
10:50 AM55 °FSunny.2 mph77%30.27 "Hg10 mi
10:20 AM54 °FSunny.1 mph77%30.27 "Hg10 mi
9:50 AM52 °FSunny.1 mph82%30.27 "Hg10 mi
9:20 AM46 °FPassing clouds.2 mph93%30.27 "HgN/A
8:50 AM45 °FScattered clouds.1 mph100%30.27 "HgN/A
8:20 AM43 °FScattered clouds.2 mph100%30.24 "HgN/A
7:50 AM41 °FFog.2 mph100%30.24 "HgN/A
7:20 AM41 °FFog.3 mph100%30.24 "HgN/A
6:50 AM41 °FPartly cloudy.1 mph100%30.24 "HgN/A
6:20 AM41 °FPartly cloudy.2 mph100%30.21 "HgN/A
5:50 AM39 °FPassing clouds.1 mph100%30.21 "Hg6 mi
5:20 AM39 °FPassing clouds.2 mph100%30.21 "Hg6 mi
Weather by CustomWeather, © 2014

See weather overviewHow to use our weather pages